Datum;"Wasserstand in cm";"Stationsnummer: 5862600";"Stationsname: Prieros, Schleuse UP";"Gew?sser: Dahme";"Fehlwerte: -777"
"25.03.2024 00:00";166
"25.03.2024 00:15";166
"25.03.2024 00:30";166
"25.03.2024 00:45";166
"25.03.2024 01:00";166
"25.03.2024 01:15";166
"25.03.2024 01:30";166
"25.03.2024 01:45";166
"25.03.2024 02:00";166
"25.03.2024 02:15";166
"25.03.2024 02:30";166
"25.03.2024 02:45";166
"25.03.2024 03:00";166
"25.03.2024 03:15";166
"25.03.2024 03:30";166
"25.03.2024 03:45";166
"25.03.2024 04:00";166
"25.03.2024 04:15";166
"25.03.2024 04:30";166
"25.03.2024 04:45";166
"25.03.2024 05:00";166
"25.03.2024 05:15";167
"25.03.2024 05:30";166
"25.03.2024 05:45";166
"25.03.2024 06:00";167
"25.03.2024 06:15";166
"25.03.2024 06:30";167
"25.03.2024 06:45";167
"25.03.2024 07:00";167
"25.03.2024 07:15";167
"25.03.2024 07:30";166
"25.03.2024 07:45";167
"25.03.2024 08:00";167
"25.03.2024 08:15";167
"25.03.2024 08:30";167
"25.03.2024 08:45";167
"25.03.2024 09:00";167
"25.03.2024 09:15";167
"25.03.2024 09:30";167
"25.03.2024 09:45";167
"25.03.2024 10:00";167
"25.03.2024 10:15";167
"25.03.2024 10:30";167
"25.03.2024 10:45";167
"25.03.2024 11:00";167
"25.03.2024 11:15";167
"25.03.2024 11:30";167
"25.03.2024 11:45";167
"25.03.2024 12:00";167
"25.03.2024 12:15";167
"25.03.2024 12:30";167
"25.03.2024 12:45";167
"25.03.2024 13:00";167
"25.03.2024 13:15";167
"25.03.2024 13:30";167
"25.03.2024 13:45";167
"25.03.2024 14:00";167
"25.03.2024 14:15";167
"25.03.2024 14:30";167
"25.03.2024 14:45";167
"25.03.2024 15:00";167
"25.03.2024 15:15";167
"25.03.2024 15:30";167
"25.03.2024 15:45";167
"25.03.2024 16:00";167
"25.03.2024 16:15";167
"25.03.2024 16:30";166
"25.03.2024 16:45";167
"25.03.2024 17:00";167
"25.03.2024 17:15";166
"25.03.2024 17:30";166
"25.03.2024 17:45";166
"25.03.2024 18:00";166
"25.03.2024 18:15";166
"25.03.2024 18:30";166
"25.03.2024 18:45";166
"25.03.2024 19:00";166
"25.03.2024 19:15";166
"25.03.2024 19:30";166
"25.03.2024 19:45";166
"25.03.2024 20:00";166
"25.03.2024 20:15";166
"25.03.2024 20:30";166
"25.03.2024 20:45";166
"25.03.2024 21:00";166
"25.03.2024 21:15";166
"25.03.2024 21:30";166
"25.03.2024 21:45";166
"25.03.2024 22:00";166
"25.03.2024 22:15";166
"25.03.2024 22:30";166
"25.03.2024 22:45";166
"25.03.2024 23:00";166
"25.03.2024 23:15";166
"25.03.2024 23:30";166
"25.03.2024 23:45";166
"26.03.2024 00:00";166
"26.03.2024 00:15";166
"26.03.2024 00:30";166
"26.03.2024 00:45";166
"26.03.2024 01:00";165
"26.03.2024 01:15";165
"26.03.2024 01:30";165
"26.03.2024 01:45";165
"26.03.2024 02:00";165
"26.03.2024 02:15";165
"26.03.2024 02:30";165
"26.03.2024 02:45";165
"26.03.2024 03:00";165
"26.03.2024 03:15";165
"26.03.2024 03:30";165
"26.03.2024 03:45";165
"26.03.2024 04:00";165
"26.03.2024 04:15";165
"26.03.2024 04:30";165
"26.03.2024 04:45";165
"26.03.2024 05:00";165
"26.03.2024 05:15";165
"26.03.2024 05:30";165
"26.03.2024 05:45";165
"26.03.2024 06:00";165
"26.03.2024 06:15";165
"26.03.2024 06:30";165
"26.03.2024 06:45";165
"26.03.2024 07:00";165
"26.03.2024 07:15";165
"26.03.2024 07:30";165
"26.03.2024 07:45";165
"26.03.2024 08:00";165
"26.03.2024 08:15";165
"26.03.2024 08:30";165
"26.03.2024 08:45";165
"26.03.2024 09:00";165
"26.03.2024 09:15";165
"26.03.2024 09:30";165
"26.03.2024 09:45";165
"26.03.2024 10:00";165
"26.03.2024 10:15";165
"26.03.2024 10:30";165
"26.03.2024 10:45";164
"26.03.2024 11:00";165
"26.03.2024 11:15";165
"26.03.2024 11:30";165
"26.03.2024 11:45";165
"26.03.2024 12:00";165
"26.03.2024 12:15";165
"26.03.2024 12:30";165
"26.03.2024 12:45";165
"26.03.2024 13:00";164
"26.03.2024 13:15";165
"26.03.2024 13:30";164
"26.03.2024 13:45";165
"26.03.2024 14:00";165
"26.03.2024 14:15";164
"26.03.2024 14:30";165
"26.03.2024 14:45";164
"26.03.2024 15:00";164
"26.03.2024 15:15";165
"26.03.2024 15:30";164
"26.03.2024 15:45";164
"26.03.2024 16:00";164
"26.03.2024 16:15";164
"26.03.2024 16:30";164
"26.03.2024 16:45";164
"26.03.2024 17:00";164
"26.03.2024 17:15";164
"26.03.2024 17:30";164
"26.03.2024 17:45";164
"26.03.2024 18:00";164
"26.03.2024 18:15";164
"26.03.2024 18:30";164
"26.03.2024 18:45";164
"26.03.2024 19:00";164
"26.03.2024 19:15";164
"26.03.2024 19:30";164
"26.03.2024 19:45";164
"26.03.2024 20:00";164
"26.03.2024 20:15";164
"26.03.2024 20:30";164
"26.03.2024 20:45";164
"26.03.2024 21:00";164
"26.03.2024 21:15";164
"26.03.2024 21:30";164
"26.03.2024 21:45";164
"26.03.2024 22:00";164
"26.03.2024 22:15";164
"26.03.2024 22:30";164
"26.03.2024 22:45";164
"26.03.2024 23:00";164
"26.03.2024 23:15";164
"26.03.2024 23:30";164
"26.03.2024 23:45";164
"27.03.2024 00:00";164
"27.03.2024 00:15";164
"27.03.2024 00:30";163
"27.03.2024 00:45";164
"27.03.2024 01:00";163
"27.03.2024 01:15";164
"27.03.2024 01:30";164
"27.03.2024 01:45";164
"27.03.2024 02:00";164
"27.03.2024 02:15";164
"27.03.2024 02:30";163
"27.03.2024 02:45";163
"27.03.2024 03:00";163
"27.03.2024 03:15";163
"27.03.2024 03:30";163
"27.03.2024 03:45";163
"27.03.2024 04:00";164
"27.03.2024 04:15";163
"27.03.2024 04:30";164
"27.03.2024 04:45";163
"27.03.2024 05:00";163
"27.03.2024 05:15";163
"27.03.2024 05:30";163
"27.03.2024 05:45";163
"27.03.2024 06:00";163
"27.03.2024 06:15";163
"27.03.2024 06:30";163
"27.03.2024 06:45";163
"27.03.2024 07:00";163
"27.03.2024 07:15";163
"27.03.2024 07:30";163
"27.03.2024 07:45";163
"27.03.2024 08:00";163
"27.03.2024 08:15";163
"27.03.2024 08:30";163
"27.03.2024 08:45";163
"27.03.2024 09:00";163
"27.03.2024 09:15";163
"27.03.2024 09:30";163
"27.03.2024 09:45";163
"27.03.2024 10:00";163
"27.03.2024 10:15";163
"27.03.2024 10:30";163
"27.03.2024 10:45";163
"27.03.2024 11:00";163
"27.03.2024 11:15";163
"27.03.2024 11:30";163
"27.03.2024 11:45";163
"27.03.2024 12:00";163
"27.03.2024 12:15";162
"27.03.2024 12:30";163
"27.03.2024 12:45";163
"27.03.2024 13:00";163
"27.03.2024 13:15";163
"27.03.2024 13:30";163
"27.03.2024 13:45";163
"27.03.2024 14:00";163
"27.03.2024 14:15";162
"27.03.2024 14:30";163
"27.03.2024 14:45";163
"27.03.2024 15:00";162
"27.03.2024 15:15";163
"27.03.2024 15:30";162
"27.03.2024 15:45";163
"27.03.2024 16:00";163
"27.03.2024 16:15";162
"27.03.2024 16:30";163
"27.03.2024 16:45";162
"27.03.2024 17:00";163
"27.03.2024 17:15";162
"27.03.2024 17:30";162
"27.03.2024 17:45";162
"27.03.2024 18:00";162
"27.03.2024 18:15";162
"27.03.2024 18:30";162
"27.03.2024 18:45";162
"27.03.2024 19:00";162
"27.03.2024 19:15";163
"27.03.2024 19:30";162
"27.03.2024 19:45";163
"27.03.2024 20:00";162
"27.03.2024 20:15";162
"27.03.2024 20:30";162
"27.03.2024 20:45";162
"27.03.2024 21:00";162
"27.03.2024 21:15";162
"27.03.2024 21:30";162
"27.03.2024 21:45";162
"27.03.2024 22:00";162
"27.03.2024 22:15";162
"27.03.2024 22:30";162
"27.03.2024 22:45";162
"27.03.2024 23:00";162
"27.03.2024 23:15";162
"27.03.2024 23:30";162
"27.03.2024 23:45";162
"28.03.2024 00:00";162
"28.03.2024 00:15";162
"28.03.2024 00:30";162
"28.03.2024 00:45";162
"28.03.2024 01:00";162
"28.03.2024 01:15";162
"28.03.2024 01:30";162
"28.03.2024 01:45";162
"28.03.2024 02:00";162
"28.03.2024 02:15";162
"28.03.2024 02:30";162
"28.03.2024 02:45";162
"28.03.2024 03:00";162
"28.03.2024 03:15";162
"28.03.2024 03:30";162
"28.03.2024 03:45";162
"28.03.2024 04:00";162
"28.03.2024 04:15";162
"28.03.2024 04:30";162
"28.03.2024 04:45";162
"28.03.2024 05:00";162
"28.03.2024 05:15";162
"28.03.2024 05:30";162
"28.03.2024 05:45";162
"28.03.2024 06:00";162
"28.03.2024 06:15";162
"28.03.2024 06:30";162
"28.03.2024 06:45";162
"28.03.2024 07:00";162
"28.03.2024 07:15";162
"28.03.2024 07:30";162
"28.03.2024 07:45";162
"28.03.2024 08:00";162
"28.03.2024 08:15";162
"28.03.2024 08:30";162
"28.03.2024 08:45";162
"28.03.2024 09:00";161
"28.03.2024 09:15";162
"28.03.2024 09:30";162
"28.03.2024 09:45";161
"28.03.2024 10:00";162
"28.03.2024 10:15";161
"28.03.2024 10:30";162
"28.03.2024 10:45";162
"28.03.2024 11:00";162
"28.03.2024 11:15";162
"28.03.2024 11:30";161
"28.03.2024 11:45";162
"28.03.2024 12:00";162
"28.03.2024 12:15";161
"28.03.2024 12:30";162
"28.03.2024 12:45";162
"28.03.2024 13:00";161
"28.03.2024 13:15";162
"28.03.2024 13:30";162
"28.03.2024 13:45";161
"28.03.2024 14:00";161
"28.03.2024 14:15";161
"28.03.2024 14:30";162
"28.03.2024 14:45";162
"28.03.2024 15:00";161
"28.03.2024 15:15";161
"28.03.2024 15:30";162
"28.03.2024 15:45";161
"28.03.2024 16:00";162
"28.03.2024 16:15";161
"28.03.2024 16:30";162
"28.03.2024 16:45";161
"28.03.2024 17:00";161
"28.03.2024 17:15";161
"28.03.2024 17:30";161
"28.03.2024 17:45";162
"28.03.2024 18:00";161
"28.03.2024 18:15";161
"28.03.2024 18:30";161
"28.03.2024 18:45";161
"28.03.2024 19:00";161
"28.03.2024 19:15";161
"28.03.2024 19:30";161
"28.03.2024 19:45";161
"28.03.2024 20:00";161
"28.03.2024 20:15";161
"28.03.2024 20:30";161
"28.03.2024 20:45";161
"28.03.2024 21:00";161
"28.03.2024 21:15";161
"28.03.2024 21:30";161
"28.03.2024 21:45";161
"28.03.2024 22:00";161
"28.03.2024 22:15";161
"28.03.2024 22:30";161
"28.03.2024 22:45";161
"28.03.2024 23:00";161
"28.03.2024 23:15";161
"28.03.2024 23:30";161
"28.03.2024 23:45";161
"29.03.2024 00:00";161
"29.03.2024 00:15";161
"29.03.2024 00:30";161
"29.03.2024 00:45";161
"29.03.2024 01:00";161
"29.03.2024 01:15";161
"29.03.2024 01:30";160
"29.03.2024 01:45";161
"29.03.2024 02:00";160
"29.03.2024 02:15";160
"29.03.2024 02:30";161
"29.03.2024 02:45";160
"29.03.2024 03:00";161
"29.03.2024 03:15";160
"29.03.2024 03:30";161
"29.03.2024 03:45";161
"29.03.2024 04:00";160
"29.03.2024 04:15";161
"29.03.2024 04:30";160
"29.03.2024 04:45";161
"29.03.2024 05:00";160
"29.03.2024 05:15";160
"29.03.2024 05:30";160
"29.03.2024 05:45";160
"29.03.2024 06:00";160
"29.03.2024 06:15";160
"29.03.2024 06:30";160
"29.03.2024 06:45";160
"29.03.2024 07:00";160
"29.03.2024 07:15";160
"29.03.2024 07:30";160
"29.03.2024 07:45";160
"29.03.2024 08:00";160
"29.03.2024 08:15";160
"29.03.2024 08:30";160
"29.03.2024 08:45";160
"29.03.2024 09:00";160
"29.03.2024 09:15";160
"29.03.2024 09:30";160
"29.03.2024 09:45";160
"29.03.2024 10:00";160
"29.03.2024 10:15";160
"29.03.2024 10:30";160
"29.03.2024 10:45";160
"29.03.2024 11:00";160
"29.03.2024 11:15";160
"29.03.2024 11:30";160
"29.03.2024 11:45";160
"29.03.2024 12:00";160
"29.03.2024 12:15";160
"29.03.2024 12:30";160
"29.03.2024 12:45";160
"29.03.2024 13:00";160
"29.03.2024 13:15";160
"29.03.2024 13:30";160
"29.03.2024 13:45";160
"29.03.2024 14:00";160
"29.03.2024 14:15";160
"29.03.2024 14:30";160
"29.03.2024 14:45";160
"29.03.2024 15:00";160
"29.03.2024 15:15";160
"29.03.2024 15:30";160
"29.03.2024 15:45";160
"29.03.2024 16:00";160
"29.03.2024 16:15";160
"29.03.2024 16:30";160
"29.03.2024 16:45";160
"29.03.2024 17:00";160
"29.03.2024 17:15";160
"29.03.2024 17:30";160
"29.03.2024 17:45";160
"29.03.2024 18:00";160
"29.03.2024 18:15";160
"29.03.2024 18:30";160
"29.03.2024 18:45";160
"29.03.2024 19:00";160
"29.03.2024 19:15";160
"29.03.2024 19:30";160
"29.03.2024 19:45";160
"29.03.2024 20:00";160
"29.03.2024 20:15";160
"29.03.2024 20:30";160
"29.03.2024 20:45";160
"29.03.2024 21:00";160
"29.03.2024 21:15";160
"29.03.2024 21:30";160
"29.03.2024 21:45";160
"29.03.2024 22:00";160
"29.03.2024 22:15";160
"29.03.2024 22:30";160
"29.03.2024 22:45";160
"29.03.2024 23:00";160
"29.03.2024 23:15";160
"29.03.2024 23:30";160
"29.03.2024 23:45";160
"30.03.2024 00:00";160
"30.03.2024 00:15";160
"30.03.2024 00:30";160
"30.03.2024 00:45";160
"30.03.2024 01:00";160
"30.03.2024 01:15";160
"30.03.2024 01:30";160
"30.03.2024 01:45";160
"30.03.2024 02:00";160
"30.03.2024 02:15";160
"30.03.2024 02:30";160
"30.03.2024 02:45";160
"30.03.2024 03:00";160
"30.03.2024 03:15";160
"30.03.2024 03:30";160
"30.03.2024 03:45";160
"30.03.2024 04:00";160
"30.03.2024 04:15";160
"30.03.2024 04:30";160
"30.03.2024 04:45";160
"30.03.2024 05:00";160
"30.03.2024 05:15";160
"30.03.2024 05:30";160
"30.03.2024 05:45";160
"30.03.2024 06:00";160
"30.03.2024 06:15";160
"30.03.2024 06:30";160
"30.03.2024 06:45";160
"30.03.2024 07:00";160
"30.03.2024 07:15";160
"30.03.2024 07:30";160
"30.03.2024 07:45";160
"30.03.2024 08:00";160
"30.03.2024 08:15";160
"30.03.2024 08:30";160
"30.03.2024 08:45";160
"30.03.2024 09:00";160
"30.03.2024 09:15";160
"30.03.2024 09:30";160
"30.03.2024 09:45";160
"30.03.2024 10:00";160
"30.03.2024 10:15";160
"30.03.2024 10:30";160
"30.03.2024 10:45";160
"30.03.2024 11:00";160
"30.03.2024 11:15";160
"30.03.2024 11:30";160
"30.03.2024 11:45";160
"30.03.2024 12:00";160
"30.03.2024 12:15";160
"30.03.2024 12:30";160
"30.03.2024 12:45";160
"30.03.2024 13:00";160
"30.03.2024 13:15";160
"30.03.2024 13:30";160
"30.03.2024 13:45";160
"30.03.2024 14:00";159
"30.03.2024 14:15";160
"30.03.2024 14:30";160
"30.03.2024 14:45";160
"30.03.2024 15:00";160
"30.03.2024 15:15";159
"30.03.2024 15:30";160
"30.03.2024 15:45";159
"30.03.2024 16:00";160
"30.03.2024 16:15";159
"30.03.2024 16:30";160
"30.03.2024 16:45";160
"30.03.2024 17:00";159
"30.03.2024 17:15";160
"30.03.2024 17:30";159
"30.03.2024 17:45";160
"30.03.2024 18:00";159
"30.03.2024 18:15";159
"30.03.2024 18:30";159
"30.03.2024 18:45";159
"30.03.2024 19:00";159
"30.03.2024 19:15";159
"30.03.2024 19:30";159
"30.03.2024 19:45";160
"30.03.2024 20:00";159
"30.03.2024 20:15";159
"30.03.2024 20:30";159
"30.03.2024 20:45";159
"30.03.2024 21:00";159
"30.03.2024 21:15";160
"30.03.2024 21:30";159
"30.03.2024 21:45";159
"30.03.2024 22:00";159
"30.03.2024 22:15";159
"30.03.2024 22:30";159
"30.03.2024 22:45";159
"30.03.2024 23:00";160
"30.03.2024 23:15";159
"30.03.2024 23:30";159
"30.03.2024 23:45";159
"31.03.2024 00:00";159
"31.03.2024 00:15";159
"31.03.2024 00:30";159
"31.03.2024 00:45";159
"31.03.2024 01:00";159
"31.03.2024 01:15";159
"31.03.2024 01:30";159
"31.03.2024 01:45";159
"31.03.2024 02:00";159
"31.03.2024 02:15";159
"31.03.2024 02:30";159
"31.03.2024 02:45";159
"31.03.2024 03:00";159
"31.03.2024 03:15";159
"31.03.2024 03:30";159
"31.03.2024 03:45";159
"31.03.2024 04:00";159
"31.03.2024 04:15";159
"31.03.2024 04:30";159
"31.03.2024 04:45";159
"31.03.2024 05:00";159
"31.03.2024 05:15";159
"31.03.2024 05:30";159
"31.03.2024 05:45";159
"31.03.2024 06:00";159
"31.03.2024 06:15";159
"31.03.2024 06:30";159
"31.03.2024 06:45";159
"31.03.2024 07:00";159
"31.03.2024 07:15";159
"31.03.2024 07:30";159
"31.03.2024 07:45";159
"31.03.2024 08:00";159
"31.03.2024 08:15";159
"31.03.2024 08:30";159
"31.03.2024 08:45";159
"31.03.2024 09:00";159
"31.03.2024 09:15";159
"31.03.2024 09:30";159
"31.03.2024 09:45";159
"31.03.2024 10:00";159
"31.03.2024 10:15";159
"31.03.2024 10:30";159
"31.03.2024 10:45";159
"31.03.2024 11:00";159
"31.03.2024 11:15";159
"31.03.2024 11:30";159
"31.03.2024 11:45";159
"31.03.2024 12:00";159
"31.03.2024 12:15";159
"31.03.2024 12:30";159
"31.03.2024 12:45";159
"31.03.2024 13:00";159
"31.03.2024 13:15";159
"31.03.2024 13:30";159
"31.03.2024 13:45";159
"31.03.2024 14:00";159
"31.03.2024 14:15";159
"31.03.2024 14:30";159
"31.03.2024 14:45";159
"31.03.2024 15:00";159
"31.03.2024 15:15";159
"31.03.2024 15:30";159
"31.03.2024 15:45";159
"31.03.2024 16:00";159
"31.03.2024 16:15";159
"31.03.2024 16:30";159
"31.03.2024 16:45";159
"31.03.2024 17:00";159
"31.03.2024 17:15";159
"31.03.2024 17:30";159
"31.03.2024 17:45";159
"31.03.2024 18:00";159
"31.03.2024 18:15";159
"31.03.2024 18:30";159
"31.03.2024 18:45";159
"31.03.2024 19:00";159
"31.03.2024 19:15";159
"31.03.2024 19:30";159
"31.03.2024 19:45";159
"31.03.2024 20:00";159
"31.03.2024 20:15";159
"31.03.2024 20:30";159
"31.03.2024 20:45";159
"31.03.2024 21:00";159
"31.03.2024 21:15";159
"31.03.2024 21:30";159
"31.03.2024 21:45";159
"31.03.2024 22:00";159
"31.03.2024 22:15";159
"31.03.2024 22:30";159
"31.03.2024 22:45";159
"31.03.2024 23:00";159
"31.03.2024 23:15";159
"31.03.2024 23:30";159
"31.03.2024 23:45";159
"01.04.2024 00:00";159
"01.04.2024 00:15";159
"01.04.2024 00:30";159
"01.04.2024 00:45";160
"01.04.2024 01:00";159
"01.04.2024 01:15";159
"01.04.2024 01:30";159
"01.04.2024 01:45";159
"01.04.2024 02:00";160
"01.04.2024 02:15";160
"01.04.2024 02:30";160
"01.04.2024 02:45";160
"01.04.2024 03:00";160
"01.04.2024 03:15";160
"01.04.2024 03:30";160
"01.04.2024 03:45";160
"01.04.2024 04:00";160
"01.04.2024 04:15";160
"01.04.2024 04:30";160
"01.04.2024 04:45";160
"01.04.2024 05:00";160
"01.04.2024 05:15";160
"01.04.2024 05:30";160
"01.04.2024 05:45";160
"01.04.2024 06:00";160
"01.04.2024 06:15";160
"01.04.2024 06:30";160
"01.04.2024 06:45";160
"01.04.2024 07:00";160
"01.04.2024 07:15";160
"01.04.2024 07:30";160
"01.04.2024 07:45";160
"01.04.2024 08:00";160
"01.04.2024 08:15";160
"01.04.2024 08:30";160
"01.04.2024 08:45";160
"01.04.2024 09:00";160
"01.04.2024 09:15";160
"01.04.2024 09:30";160
"01.04.2024 09:45";160
"01.04.2024 10:00";160
"01.04.2024 10:15";160
"01.04.2024 10:30";160
"01.04.2024 10:45";160
"01.04.2024 11:00";160
"01.04.2024 11:15";160
"01.04.2024 11:30";160
"01.04.2024 11:45";160
"01.04.2024 12:00";160
"01.04.2024 12:15";160
"01.04.2024 12:30";160
"01.04.2024 12:45";160
"01.04.2024 13:00";160
"01.04.2024 13:15";160
"01.04.2024 13:30";160
"01.04.2024 13:45";160
"01.04.2024 14:00";160
"01.04.2024 14:15";160
"01.04.2024 14:30";160
"01.04.2024 14:45";160
"01.04.2024 15:00";160
"01.04.2024 15:15";160
"01.04.2024 15:30";160
"01.04.2024 15:45";160
"01.04.2024 16:00";160
"01.04.2024 16:15";161
"01.04.2024 16:30";160
"01.04.2024 16:45";161
"01.04.2024 17:00";161
"01.04.2024 17:15";160
"01.04.2024 17:30";161
"01.04.2024 17:45";160
"01.04.2024 18:00";160
"01.04.2024 18:15";161
"01.04.2024 18:30";161
"01.04.2024 18:45";161
"01.04.2024 19:00";161
"01.04.2024 19:15";161
"01.04.2024 19:30";161
"01.04.2024 19:45";161
"01.04.2024 20:00";161
"01.04.2024 20:15";161
"01.04.2024 20:30";161
"01.04.2024 20:45";161
"01.04.2024 21:00";161
"01.04.2024 21:15";161
"01.04.2024 21:30";161
"01.04.2024 21:45";161
"01.04.2024 22:00";161
"01.04.2024 22:15";161
"01.04.2024 22:30";161
"01.04.2024 22:45";161
"01.04.2024 23:00";161
"01.04.2024 23:15";161
"01.04.2024 23:30";161
"01.04.2024 23:45";161
"02.04.2024 00:00";161
"02.04.2024 00:15";161
"02.04.2024 00:30";161
"02.04.2024 00:45";161
"02.04.2024 01:00";161
"02.04.2024 01:15";161
"02.04.2024 01:30";161
"02.04.2024 01:45";161
"02.04.2024 02:00";161
"02.04.2024 02:15";161
"02.04.2024 02:30";161
"02.04.2024 02:45";161
"02.04.2024 03:00";161
"02.04.2024 03:15";161
"02.04.2024 03:30";161
"02.04.2024 03:45";161
"02.04.2024 04:00";161
"02.04.2024 04:15";161
"02.04.2024 04:30";161
"02.04.2024 04:45";161
"02.04.2024 05:00";161
"02.04.2024 05:15";161
"02.04.2024 05:30";161
"02.04.2024 05:45";161
"02.04.2024 06:00";161
"02.04.2024 06:15";161
"02.04.2024 06:30";161
"02.04.2024 06:45";161
"02.04.2024 07:00";161
"02.04.2024 07:15";161
"02.04.2024 07:30";161
"02.04.2024 07:45";161
"02.04.2024 08:00";161
"02.04.2024 08:15";161
"02.04.2024 08:30";162
"02.04.2024 08:45";161
"02.04.2024 09:00";161
"02.04.2024 09:15";162
"02.04.2024 09:30";161
"02.04.2024 09:45";162
"02.04.2024 10:00";161
"02.04.2024 10:15";162
"02.04.2024 10:30";161
"02.04.2024 10:45";161
"02.04.2024 11:00";162
"02.04.2024 11:15";162
"02.04.2024 11:30";162
"02.04.2024 11:45";162
"02.04.2024 12:00";162
"02.04.2024 12:15";162
"02.04.2024 12:30";162
"02.04.2024 12:45";162
"02.04.2024 13:00";162
"02.04.2024 13:15";162
"02.04.2024 13:30";162
"02.04.2024 13:45";161
"02.04.2024 14:00";162
"02.04.2024 14:15";162
"02.04.2024 14:30";162
"02.04.2024 14:45";162
"02.04.2024 15:00";162
"02.04.2024 15:15";161
"02.04.2024 15:30";161
"02.04.2024 15:45";163
"02.04.2024 16:00";160
"02.04.2024 16:15";162
"02.04.2024 16:30";162
"02.04.2024 16:45";161
"02.04.2024 17:00";163
"02.04.2024 17:15";160
"02.04.2024 17:30";162
"02.04.2024 17:45";161
"02.04.2024 18:00";161
"02.04.2024 18:15";162
"02.04.2024 18:30";160
"02.04.2024 18:45";161
"02.04.2024 19:00";161
"02.04.2024 19:15";161
"02.04.2024 19:30";161
"02.04.2024 19:45";161
"02.04.2024 20:00";161
"02.04.2024 20:15";161
"02.04.2024 20:30";161
"02.04.2024 20:45";161
"02.04.2024 21:00";161
"02.04.2024 21:15";162
"02.04.2024 21:30";162
"02.04.2024 21:45";162
"02.04.2024 22:00";162
"02.04.2024 22:15";162
"02.04.2024 22:30";162
"02.04.2024 22:45";162
"02.04.2024 23:00";162
"02.04.2024 23:15";162
"02.04.2024 23:30";162
"02.04.2024 23:45";162
"03.04.2024 00:00";162
"03.04.2024 00:15";162
"03.04.2024 00:30";162
"03.04.2024 00:45";162
"03.04.2024 01:00";162
"03.04.2024 01:15";162
"03.04.2024 01:30";162
"03.04.2024 01:45";162
"03.04.2024 02:00";161
"03.04.2024 02:15";162
"03.04.2024 02:30";161
"03.04.2024 02:45";161
"03.04.2024 03:00";161
"03.04.2024 03:15";161
"03.04.2024 03:30";162
"03.04.2024 03:45";161
"03.04.2024 04:00";161
"03.04.2024 04:15";161
"03.04.2024 04:30";161
"03.04.2024 04:45";161
"03.04.2024 05:00";161
"03.04.2024 05:15";161
"03.04.2024 05:30";161
"03.04.2024 05:45";162
"03.04.2024 06:00";161
"03.04.2024 06:15";161
"03.04.2024 06:30";162
"03.04.2024 06:45";162
"03.04.2024 07:00";162
"03.04.2024 07:15";162
"03.04.2024 07:30";161
"03.04.2024 07:45";162
"03.04.2024 08:00";161
"03.04.2024 08:15";162
"03.04.2024 08:30";162
"03.04.2024 08:45";162
"03.04.2024 09:00";162
"03.04.2024 09:15";162
"03.04.2024 09:30";162
"03.04.2024 09:45";162
"03.04.2024 10:00";162
"03.04.2024 10:15";162
"03.04.2024 10:30";161
"03.04.2024 10:45";162
"03.04.2024 11:00";161
"03.04.2024 11:15";162
"03.04.2024 11:30";162
"03.04.2024 11:45";162
"03.04.2024 12:00";162
"03.04.2024 12:15";162
"03.04.2024 12:30";162
"03.04.2024 12:45";162
"03.04.2024 13:00";162
"03.04.2024 13:15";162
"03.04.2024 13:30";161
"03.04.2024 13:45";162
"03.04.2024 14:00";162
"03.04.2024 14:15";162
"03.04.2024 14:30";162
"03.04.2024 14:45";162
"03.04.2024 15:00";162
"03.04.2024 15:15";162
"03.04.2024 15:30";162
"03.04.2024 15:45";162
"03.04.2024 16:00";162
"03.04.2024 16:15";162
"03.04.2024 16:30";162
"03.04.2024 16:45";162
"03.04.2024 17:00";162
"03.04.2024 17:15";162
"03.04.2024 17:30";162
"03.04.2024 17:45";162
"03.04.2024 18:00";162
"03.04.2024 18:15";162
"03.04.2024 18:30";162
"03.04.2024 18:45";162
"03.04.2024 19:00";162
"03.04.2024 19:15";162
"03.04.2024 19:30";162
"03.04.2024 19:45";162
"03.04.2024 20:00";162
"03.04.2024 20:15";162
"03.04.2024 20:30";162
"03.04.2024 20:45";162
"03.04.2024 21:00";162
"03.04.2024 21:15";162
"03.04.2024 21:30";162
"03.04.2024 21:45";162
"03.04.2024 22:00";162
"03.04.2024 22:15";162
"03.04.2024 22:30";162
"03.04.2024 22:45";162
"03.04.2024 23:00";162
"03.04.2024 23:15";163
"03.04.2024 23:30";162
"03.04.2024 23:45";162
"04.04.2024 00:00";163
"04.04.2024 00:15";162
"04.04.2024 00:30";163
"04.04.2024 00:45";162
"04.04.2024 01:00";162
"04.04.2024 01:15";162
"04.04.2024 01:30";163
"04.04.2024 01:45";163
"04.04.2024 02:00";163
"04.04.2024 02:15";163
"04.04.2024 02:30";162
"04.04.2024 02:45";163
"04.04.2024 03:00";163
"04.04.2024 03:15";163
"04.04.2024 03:30";163
"04.04.2024 03:45";163
"04.04.2024 04:00";163
"04.04.2024 04:15";163
"04.04.2024 04:30";163
"04.04.2024 04:45";163
"04.04.2024 05:00";163
"04.04.2024 05:15";163
"04.04.2024 05:30";163
"04.04.2024 05:45";163
"04.04.2024 06:00";163
"04.04.2024 06:15";163
"04.04.2024 06:30";163
"04.04.2024 06:45";163
"04.04.2024 07:00";163
"04.04.2024 07:15";163
"04.04.2024 07:30";163
"04.04.2024 07:45";163
"04.04.2024 08:00";163
"04.04.2024 08:15";163
"04.04.2024 08:30";163
"04.04.2024 08:45";163
"04.04.2024 09:00";163
"04.04.2024 09:15";163
"04.04.2024 09:30";163
"04.04.2024 09:45";163
"04.04.2024 10:00";163
"04.04.2024 10:15";163
"04.04.2024 10:30";163
"04.04.2024 10:45";163
"04.04.2024 11:00";163
"04.04.2024 11:15";163
"04.04.2024 11:30";163
"04.04.2024 11:45";163
"04.04.2024 12:00";163
"04.04.2024 12:15";163
"04.04.2024 12:30";163
"04.04.2024 12:45";163
"04.04.2024 13:00";163
"04.04.2024 13:15";163
"04.04.2024 13:30";163
"04.04.2024 13:45";163
"04.04.2024 14:00";163
"04.04.2024 14:15";163
"04.04.2024 14:30";163
"04.04.2024 14:45";163
"04.04.2024 15:00";163
"04.04.2024 15:15";163
"04.04.2024 15:30";163
"04.04.2024 15:45";163
"04.04.2024 16:00";164
"04.04.2024 16:15";164
"04.04.2024 16:30";164
"04.04.2024 16:45";164
"04.04.2024 17:00";163
"04.04.2024 17:15";164
"04.04.2024 17:30";164
"04.04.2024 17:45";164
"04.04.2024 18:00";164
"04.04.2024 18:15";164
"04.04.2024 18:30";164
"04.04.2024 18:45";164
"04.04.2024 19:00";164
"04.04.2024 19:15";164